Theta_e
322 322 324 327 327 332 332 333 331 330 329 328 328 328 327 327 327 329 330 326 328 328 329 330 331 329 328 325 312 323 336 337 336 338 338 336 332 329 330 332 332 332 331
324 323 329 329 330 333 335 334 331 330 330 329 329 328 330 328 327 326 329 329 328 328 328 328 329 329 328 325 314 317 330 337 336 336 339 336 333 332 332 332 332 331 330
331 335 333 331 331 335 334 333 332 330 330 330 330 329 328 327 327 326 328 328 328 328 328 327 327 327 325 323 316 313 327 333 334 334 340 338 334 334 332 332 332 331 331
337 336 334 332 332 333 333 332 331 332 331 330 330 329 328 327 327 326 327 328 329 329 329 326 327 325 323 318 318 313 320 330 335 334 336 339 337 335 330 333 332 331 331
338 335 333 333 332 330 331 330 331 331 331 329 328 327 327 327 325 325 326 327 328 328 328 326 327 326 314 313 320 323 318 327 332 334 335 337 337 334 332 333 332 331 330
335 333 333 333 330 333 332 330 329 329 328 327 327 327 326 326 325 325 326 326 327 327 327 325 327 327 327 315 317 322 324 327 332 334 335 334 336 332 333 332 333 328 325
333 333 334 333 332 332 330 329 328 327 327 327 327 327 326 326 327 325 326 326 327 327 327 326 327 327 329 322 318 317 322 327 331 333 338 334 334 333 332 333 328 325 310
334 333 333 334 330 331 330 327 326 326 326 327 327 326 326 326 327 325 325 325 327 325 325 325 326 326 329 329 318 318 323 327 330 333 334 334 332 332 332 333 325 311 310
333 333 333 331 330 330 328 326 325 325 325 326 325 326 325 324 323 324 325 325 326 325 327 325 325 326 327 330 321 322 325 327 332 333 333 335 332 332 331 329 325 310 312
333 333 333 332 328 326 325 325 324 325 325 324 324 323 323 324 326 324 323 324 326 327 324 325 327 326 328 330 324 323 326 328 334 335 332 334 333 333 329 311 309 311 316
333 333 331 330 326 325 324 323 324 324 323 323 323 323 323 323 324 326 325 325 326 326 326 325 328 326 327 327 329 326 327 327 334 334 333 333 332 330 326 310 316 316 320
332 331 331 329 326 325 323 323 323 323 324 323 324 323 324 323 323 324 325 325 326 326 326 326 326 327 326 327 329 328 328 328 334 332 332 333 331 330 317 310 314 321 320
330 330 327 325 325 325 325 324 325 325 325 324 325 325 324 324 322 323 325 325 325 326 326 324 323 323 326 328 326 325 328 327 332 333 332 331 329 325 312 315 319 322 316
330 327 325 326 324 324 324 325 325 325 325 325 325 325 325 324 323 324 323 322 326 325 325 323 326 325 325 325 325 326 329 327 327 324 330 329 326 315 313 317 322 322 319
327 325 325 324 325 326 325 326 326 324 325 324 325 325 324 325 325 324 325 325 324 325 325 325 327 328 329 330 329 328 329 330 327 327 326 326 325 320 319 322 323 322 313
325 325 325 325 326 326 326 326 326 326 325 323 324 325 326 326 325 325 325 326 326 322 325 326 327 328 330 331 331 329 330 328 328 328 326 324 319 320 322 322 322 319 313
326 326 328 328 328 327 326 325 325 325 324 324 325 324 326 326 326 326 326 327 327 325 325 326 328 330 330 331 329 329 328 327 326 325 322 319 322 323 322 321 316 315 311
325 327 328 328 328 327 327 328 325 324 325 326 325 325 324 323 325 326 326 327 327 327 326 325 327 330 328 329 329 328 327 326 322 320 320 321 322 321 319 315 318 313 315
326 326 327 328 328 328 327 328 330 329 324 323 324 326 323 325 327 328 328 328 328 327 326 327 326 326 326 325 322 324 323 322 322 322 321 321 320 319 317 318 315 314 317
325 326 326 327 328 328 328 330 330 330 329 324 325 324 325 324 327 328 328 328 327 326 324 327 326 324 323 321 323 323 322 322 321 321 320 319 317 316 315 314 313 312 313
326 326 326 327 327 327 324 329 330 330 329 326 327 327 326 326 327 327 328 327 327 326 325 325 323 323 322 322 322 323 323 321 319 320 319 316 314 312 314 313 313 313 315
326 327 328 326 328 324 324 329 330 329 326 327 328 328 328 328 326 326 324 326 327 326 323 323 323 323 323 323 323 323 322 320 318 318 313 317 314 313 312 312 313 313 317
326 326 327 326 328 327 324 328 330 329 327 327 327 328 328 328 326 326 326 326 326 324 323 324 323 323 323 323 322 322 321 321 319 314 316 315 315 313 312 312 313 317 314
326 326 327 327 327 326 324 329 330 328 327 328 328 329 328 326 326 326 325 325 325 324 324 323 323 324 323 322 322 322 322 321 317 313 314 312 313 313 311 312 315 317 312
326 326 326 327 327 323 326 329 329 329 328 328 329 328 327 326 325 325 325 324 323 323 323 323 323 322 322 322 322 322 322 317 313 315 316 311 310 311 311 315 317 317 313
328 328 328 327 328 323 328 329 329 328 328 328 329 328 327 325 324 324 324 322 323 323 323 323 322 323 323 323 323 323 319 315 313 315 313 312 311 315 317 319 318 317 313
Wind_Speed
28 23 20 18 15 15 15 14 15 14 14 13 12 13 11 11 12 15 13 16 17 16 19 18 15 13 12 13 17 22 24 24 24 22 19 20 20 22 21 20 19 19 18
27 24 19 16 18 18 17 16 18 18 17 16 17 17 15 17 16 21 14 15 17 18 16 16 15 15 14 14 17 22 22 25 24 22 21 22 23 22 20 20 20 20 20
19 18 16 17 18 17 18 18 19 20 21 22 21 21 21 20 17 18 20 17 17 18 17 15 14 15 14 16 17 22 22 24 25 22 22 23 24 22 21 20 21 20 19
19 17 17 16 16 21 23 21 18 19 22 25 24 22 21 19 19 15 17 18 17 17 17 14 14 14 14 17 16 21 23 22 25 24 24 21 23 21 23 23 21 22 22
19 14 17 13 16 21 20 19 20 21 21 23 24 22 21 20 20 17 15 19 21 19 17 13 11 9 13 17 16 18 23 21 25 25 24 22 22 24 24 22 23 25 20
17 16 15 15 17 17 20 21 20 19 20 19 19 19 19 19 20 17 18 18 21 22 18 16 13 13 13 16 17 18 20 21 22 25 24 21 22 23 23 24 28 27 22
16 15 16 15 16 19 21 18 18 18 18 17 16 17 18 21 19 19 16 18 19 19 19 17 16 13 13 14 17 19 20 21 21 23 25 23 25 24 22 27 21 21 21
18 17 15 14 17 20 19 18 17 18 17 14 15 13 12 19 18 20 20 20 22 18 18 19 20 17 13 14 17 20 20 20 22 23 23 21 25 23 26 29 25 21 19
15 14 15 17 17 19 18 16 13 12 10 12 14 10 6 8 8 17 20 21 20 17 17 16 16 16 14 9 16 19 19 20 21 26 23 25 26 23 28 24 24 24 19
16 17 18 16 15 15 12 9 8 10 11 12 14 16 15 3 4 3 18 23 19 19 18 16 13 15 14 13 15 18 19 20 23 28 25 28 25 31 22 27 30 27 24
19 17 15 13 12 9 8 7 8 8 10 12 16 16 17 20 12 6 6 19 22 18 16 17 13 17 16 15 16 18 19 20 26 31 28 28 25 31 27 31 29 21 22
14 14 14 13 9 6 5 5 6 5 6 8 11 14 16 18 22 11 10 20 23 18 15 15 17 18 17 16 17 16 16 18 29 33 29 31 35 32 32 31 24 23 17
11 12 13 10 7 5 4 5 5 4 5 5 7 9 12 12 15 13 15 15 21 17 14 15 15 18 19 17 14 15 16 20 26 29 26 36 36 34 34 31 28 18 19
10 11 8 7 6 5 6 6 4 5 4 5 6 8 10 13 14 15 11 14 18 18 17 17 14 14 17 16 16 16 22 24 25 17 29 31 33 34 32 28 25 19 16
9 6 5 3 2 2 5 6 6 6 6 5 5 7 10 12 14 13 13 13 22 14 12 12 12 14 12 12 13 19 26 30 18 23 29 28 32 29 31 28 21 10 19
8 7 5 4 2 2 4 6 6 7 6 7 7 7 10 12 11 10 12 15 20 20 15 16 12 15 13 15 20 22 30 26 18 27 26 36 34 33 29 21 15 18 14
8 9 6 4 2 2 4 4 6 6 8 9 7 7 11 13 14 15 14 18 20 18 20 18 15 12 15 26 35 35 29 21 26 34 40 35 30 25 22 22 21 18 14
11 6 2 2 4 6 4 5 7 9 9 8 9 10 11 10 10 13 16 20 23 19 20 24 17 18 21 23 26 32 38 41 47 33 30 31 26 25 23 26 20 19 10
10 5 2 2 4 5 5 4 5 7 13 12 10 11 11 10 11 12 17 22 21 21 25 28 28 21 27 32 43 44 40 36 37 33 32 29 23 19 20 16 16 14 9
9 5 4 2 4 6 5 6 5 3 6 11 9 10 10 10 9 9 10 17 23 24 26 29 30 36 38 42 46 45 43 39 38 33 25 22 22 20 19 18 15 15 11
7 6 4 2 2 5 6 7 5 3 7 9 5 9 10 8 8 10 9 20 24 29 33 35 40 42 41 40 44 42 37 35 29 24 26 25 21 19 18 17 15 12 8
7 8 5 1 3 4 6 6 5 6 9 9 10 13 14 16 16 9 10 13 26 33 36 40 44 46 43 46 42 38 39 35 28 26 27 21 18 18 16 14 12 9 9
9 7 6 4 4 5 5 4 4 6 9 11 9 12 14 13 11 13 14 25 28 33 32 36 46 47 48 42 38 36 31 30 33 30 26 23 18 15 14 12 11 11 10
10 10 7 5 5 6 3 3 6 9 10 8 9 11 11 12 12 17 24 30 28 31 32 38 47 44 39 33 33 32 32 30 29 26 20 21 19 15 13 13 12 12 10
13 11 10 8 6 3 1 4 7 10 9 10 11 12 13 14 20 23 29 29 35 37 35 36 38 31 33 32 27 29 29 30 29 25 22 14 18 17 14 13 13 13 11
12 12 11 7 4 4 5 6 7 10 11 14 15 13 14 19 22 25 27 30 31 35 32 35 31 27 26 23 25 26 28 27 26 23 21 13 16 15 11 13 15 15 14
Wind_Direction
243 244 253 253 260 261 255 277 279 267 262 268 252 244 262 261 258 256 243 216 229 229 228 224 224 239 243 235 223 217 211 212 209 217 218 212 211 214 209 214 203 197 189
247 244 245 252 253 258 258 271 281 266 263 263 259 251 256 263 263 257 268 225 237 231 232 232 235 244 248 240 227 219 218 210 212 217 222 214 208 213 214 205 202 199 190
232 225 239 244 252 254 264 264 271 262 259 265 265 257 255 259 251 251 252 243 235 230 238 244 236 245 242 234 224 221 219 214 213 216 224 222 210 219 201 202 203 193 183
220 226 239 250 255 255 261 268 269 256 260 259 260 259 258 245 242 241 243 236 220 221 238 236 240 249 231 229 227 222 221 216 207 214 218 217 220 209 200 202 196 186 184
211 223 235 252 265 258 262 273 270 269 268 260 257 255 253 244 234 236 243 232 226 228 234 223 231 250 234 227 223 223 219 218 209 208 219 212 227 212 200 200 200 184 165
210 231 235 260 276 258 272 275 277 275 273 261 256 252 241 231 227 235 244 238 229 224 223 224 232 241 251 235 223 216 219 214 210 209 213 215 213 199 201 199 190 168 174
221 220 237 270 266 271 281 285 283 276 267 257 249 242 238 228 233 232 239 227 226 228 229 232 232 240 248 239 228 214 213 213 210 205 211 217 200 199 201 196 174 172 166
210 224 264 270 273 278 279 281 271 267 262 247 238 239 237 234 226 233 243 235 222 225 225 222 233 242 251 230 224 213 211 212 211 204 214 201 194 197 191 177 161 158 163
226 252 256 268 279 277 276 273 263 254 254 238 228 214 202 216 219 239 236 227 219 208 213 222 219 233 239 246 223 216 212 213 212 202 206 209 196 199 176 171 176 154 166
236 248 259 268 281 276 268 260 254 244 237 223 223 227 231 195 197 230 222 221 212 214 213 220 226 231 232 237 219 220 221 214 208 200 208 197 195 188 176 159 163 175 164
237 254 266 271 275 267 259 263 257 251 246 239 233 234 233 234 241 235 220 206 207 217 222 227 229 236 235 227 231 219 220 216 204 201 200 195 199 185 176 168 164 172 177
237 261 269 268 254 256 267 268 253 244 248 246 239 233 227 224 220 228 217 203 207 213 219 215 222 228 240 229 228 221 217 210 205 207 194 194 184 193 175 174 176 169 165
252 263 264 242 239 256 253 227 222 213 224 222 227 224 216 214 216 239 214 196 197 200 204 222 229 229 225 231 208 208 207 203 195 181 186 179 179 177 175 173 169 164 153
258 262 223 214 238 248 244 230 227 222 243 234 230 209 209 210 207 221 202 197 181 188 205 222 217 219 221 223 221 200 197 182 160 174 185 183 174 168 168 175 173 166 150
240 186 183 197 192 229 243 252 247 236 228 223 221 219 217 213 213 219 220 207 194 166 179 200 210 204 208 203 197 178 180 176 173 186 185 193 178 169 168 163 162 157 154
165 154 135 128 142 288 286 265 262 253 239 210 219 209 192 202 208 210 213 203 208 204 166 183 186 182 189 193 192 172 172 171 186 184 184 176 165 167 167 166 152 152 172
152 138 126 115 21 351 303 276 238 225 206 209 215 219 195 193 201 213 212 202 199 207 186 168 179 176 179 189 183 171 172 171 175 176 165 160 167 164 162 151 148 162 160
153 148 141 302 325 321 317 301 249 232 210 212 211 213 207 213 214 210 201 198 199 201 187 164 165 170 179 184 180 171 170 169 159 157 160 161 157 160 162 155 160 160 147
156 186 196 282 314 328 317 317 312 216 217 216 218 213 215 204 206 210 199 200 198 182 178 159 159 159 162 165 147 156 150 144 144 145 150 155 156 161 161 161 167 179 181
168 192 198 239 303 330 346 344 336 198 191 191 188 202 194 196 205 195 193 166 170 169 167 157 159 154 152 149 149 143 144 142 146 153 151 152 138 135 135 138 147 160 170
175 180 206 236 313 348 357 10 15 93 160 176 194 179 176 180 167 122 159 169 167 158 157 158 151 152 149 147 145 145 142 147 145 143 142 142 142 145 151 158 159 161 175
185 205 212 301 329 2 11 29 46 111 134 131 125 134 139 148 151 146 163 162 171 163 156 154 155 152 152 155 152 154 151 152 146 156 145 143 153 155 157 159 167 178 180
188 208 211 248 310 336 2 39 85 116 140 142 141 145 140 142 146 145 175 174 176 167 163 163 158 158 158 159 160 157 156 158 155 156 155 156 160 165 171 176 182 187 188
200 214 224 243 296 313 347 49 117 122 129 127 135 141 140 140 145 147 161 166 165 167 166 167 165 160 158 159 163 163 161 158 152 156 166 160 167 176 186 192 197 196 203
213 220 230 252 281 266 161 115 141 143 130 124 134 137 135 121 135 145 152 155 159 160 159 157 156 157 163 163 169 168 163 161 161 168 177 186 177 180 194 205 211 211 219
219 227 231 233 249 203 165 145 144 150 138 131 130 136 132 130 132 138 143 146 145 152 156 162 160 156 159 165 173 174 168 171 166 171 182 193 193 185 202 219 219 220 228